Oleksiy Sirenko

Olheiro - Vorskla
3 Dez 2028
Domingo
Processo

Personalidade

Adaptabilidade (8) Ambição (7) Controvérsia (11) Lealdade (18) Pressão (1) Profissionalismo (16) Espírito Esportivo (9) Temperamento (15)

Perfil

Estilo de Treinamento Democrático
Licença Nacional A
Determinação 5
Gestão de Pessoas 5
Motivação 10
Disciplina 8
Satisfação no Trabalho
100%
Fadiga
0%
Função Olheiro
Salário 41.7K p/s
Contrato 14.03.2029

Desempenho

Comportamento Bom
Eficácia do Treinamento
33%
Desenvolvimento do Jogador
15%
Prevenção de Lesões
25%
Implementação Tática
30%

Eventos Recentes

Participou de uma reunião de recrutamento 7d atrás
Participou de uma reunião de recrutamento 14d atrás
Participou de uma reunião de recrutamento 21d atrás
Participou de uma reunião de recrutamento 28d atrás
Participou de uma reunião de recrutamento 35d atrás
Participou de uma reunião de recrutamento 42d atrás
Participou de uma reunião de recrutamento 49d atrás
Participou de uma reunião de recrutamento 56d atrás

Monitorando agora

80
Jogador Clube Status Habilidade Confiança Observado Última observação Último voto
Maksym Uhryniuk Nyva Rejeitado 91 / 93 69% 1 04.09.2028 Rejeitar
Rodrigo Pollero Deportivo Tachira Ativo 106 / 104 40% 3 03.01.2028 -
Genaro Rossi San Martín SJ Ativo 117 / 100 40% 5 03.01.2028 -
Luca Franco Arsenal Ativo 106 / 104 40% 4 03.01.2028 -
Lucas Pedraza Defensores Unidos Ativo 100 / 106 40% 6 02.01.2028 -
Luciano Riveros San Martín SJ Ativo 115 / 110 40% 1 02.01.2028 -
Shahzodbek Ubaydullayev Gor Mahia Ativo 93 / 105 40% 2 30.12.2027 -
Santiago Sala Güemes Ativo 123 / 122 40% 6 29.12.2027 -
Alejandro Rincon Llaneros Ativo 97 / 109 40% 1 29.12.2027 -
Mykola Haiduchyk Polissia Ativo 124 / 112 40% 1 29.12.2027 -
José Rivas Gamboa Trujillanos Ativo 92 / 93 40% 3 24.12.2027 -
Richard Figueroa Deportivo Lara Ativo 102 / 92 40% 4 22.12.2027 -
Alan Bonansea Colón Ativo 112 / 96 40% 6 22.12.2027 -
Agustín Gallo Tristán Suárez Ativo 123 / 115 40% 4 22.12.2027 -
Marco Miori Alvarado Ativo 100 / 122 40% 3 21.12.2027 -
Owen Falconis Cerrito Ativo 113 / 93 40% 2 21.12.2027 -
Franco Ayunta Temperley Ativo 118 / 106 40% 5 18.12.2027 -
Augusto Berrondo Tristán Suárez Ativo 111 / 123 40% 2 18.12.2027 -
Juan David Rueda Alianza Petrolera Ativo 102 / 102 40% 4 17.12.2027 -
Junior Paredes Trujillanos Ativo 105 / 90 40% 2 17.12.2027 -
Gustavo Viera Cerro Largo Ativo 93 / 101 40% 4 14.12.2027 -
Enzo González Defensores Ativo 109 / 103 40% 4 07.12.2027 -
Lisandro Cabrera Maipú Ativo 115 / 123 40% 5 07.12.2027 -
Abubakar Garba Nasarawa United Ativo 87 / 86 40% 8 06.12.2027 -
Camilo Machado Madryn Ativo 121 / 103 40% 3 06.12.2027 -
José Barreto Quilmes Ativo 104 / 123 40% 2 03.12.2027 -
Ismail Sarki Niger Tornadoes Ativo 100 / 102 40% 3 30.11.2027 -
Timothy Zechariah Rivers United Ativo 104 / 100 40% 7 29.11.2027 -
Facundo Krüger Temperley Ativo 104 / 129 40% 3 28.11.2027 -
Lautaro Gordillo Colegiales Ativo 112 / 99 40% 8 24.11.2027 -
Juan Mendoza Güemes Ativo 97 / 106 40% 3 24.11.2027 -
Germán Cervera Alvarado Ativo 95 / 106 40% 5 23.11.2027 -
Samuel Anakwe Remo Stars Ativo 107 / 99 40% 4 22.11.2027 -
Sebastián Cocimano Nueva Chicago Ativo 123 / 111 40% 2 21.11.2027 -
Gianluca Pugliese Güemes Ativo 109 / 119 40% 3 21.11.2027 -
Agustín Lavezzi Quilmes Ativo 115 / 110 40% 4 19.11.2027 -
Tornike Mikautadze Tskhinvali Ativo 88 / 108 40% 2 19.11.2027 -
Elías Peralta Lokomotivi Ativo 100 / 97 40% 1 19.11.2027 -
Umar Ada Nasarawa United Ativo 99 / 99 40% 1 15.11.2027 -
Ronaldo Peña Deportivo Lara Ativo 113 / 113 40% 4 08.11.2027 -
Jonathan Cañete Portuguesa Ativo 117 / 117 40% 2 08.11.2027 -
César Magallan Estudiantes de Merida Ativo 111 / 105 40% 3 30.10.2027 -
Renzo Reynaga Patronato Ativo 126 / 98 40% 4 24.10.2027 -
Nicolás Heiz Maipú Ativo 96 / 98 40% 2 23.10.2027 -
Sagir Arce Saburtalo Ativo 104 / 105 40% 3 19.10.2027 -
Chukwuemeka Obioma Abia Warriors Ativo 96 / 94 40% 4 05.10.2027 -
Salomon Ramirez Atletico Venezuela Ativo 86 / 97 40% 1 28.09.2027 -
Rafael Moreno Atletico Venezuela Ativo 108 / 119 40% 1 24.09.2027 -
John Valladares Santiago Wanderers Ativo 108 / 95 40% 1 20.09.2027 -
Lorenzo Barrera Agropecuario Argentino Ativo 92 / 108 40% 1 17.09.2027 -
Samson Olasupo Remo Stars Ativo 91 / 98 40% 2 15.09.2027 -
Elías Ayala Madryn Ativo 102 / 94 40% 1 07.09.2027 -
Matías Samaniego Talleres Ativo 88 / 109 40% 1 06.09.2027 -
Sebastián Marfort Racing Ativo 105 / 96 40% 1 06.09.2027 -
Tyrese Shade Burton Albion Ativo 99 / 88 40% 3 12.07.2027 -
Mees Rijks Bristol Rovers Ativo 125 / 127 40% 7 12.06.2027 -
Paul Glatzel Swindon Town Ativo 106 / 95 40% 3 12.06.2027 -
Aaron Drinan Swindon Town Ativo 97 / 111 40% 1 06.06.2027 -
Christian Saydee Wigan Athletic Ativo 112 / 112 40% 3 04.06.2027 -
Walid Cheddira Avellino Ativo 120 / 116 40% 2 04.06.2027 -
Will Swan Bradford City Ativo 93 / 94 40% 1 02.06.2027 -
Stephen Amankona Aduana Stars Ativo 100 / 89 40% 4 27.05.2027 -
Danny Butterworth Accrington Stanley Ativo 81 / 105 40% 1 27.05.2027 -
Simone Mazzocchi Cosenza Ativo 125 / 123 40% 1 26.05.2027 -
Lorent Tolaj Plymouth Argyle Ativo 118 / 118 40% 6 25.05.2027 -
Stephen Humphrys Bradford City Ativo 124 / 120 40% 2 25.05.2027 -
Fábio Tavares Burton Albion Ativo 109 / 95 40% 1 19.05.2027 -
Etiosa Ighodaro Kaizer Chiefs Ativo 119 / 127 40% 1 13.05.2027 -
Tyreece Campbell Charlton Athletic Ativo 122 / 116 40% 1 11.05.2027 -
John Yeboah Venezia Ativo 134 / 106 40% 2 08.05.2027 -
Erick Dolly Black Aces Ativo 100 / 105 40% 1 08.05.2027 -
Aaron Collins Milton Keynes Dons Ativo 108 / 127 40% 2 06.05.2027 -
Dale Taylor Blackpool Ativo 118 / 105 40% 1 05.05.2027 -
Matty Stevens AFC Wimbledon Ativo 108 / 109 40% 1 05.05.2027 -
Morgan Tau Ajax Cape Town Ativo 109 / 90 40% 1 24.01.2027 -
Volodymyr Shepeliev Polissia Ativo 118 / 116 40% 1 24.08.2026 -
Pedro Silva Torrejón Gimnasia La Plata Ativo 118 / 107 40% 1 24.08.2026 -
Fawaaz Basadien Mamelodi Sundowns Ativo 110 / 99 40% 1 17.08.2026 -
Rui Modesto Vancouver Whitecaps Ativo 111 / 127 40% 1 17.08.2026 -
Liam Roberts Mansfield Town Ativo 96 / 92 40% 1 01.08.2026 -